Showing default

FLOCK 4BE 34, 60495

Orbit data source: Space-Track

FLOCK 4BE 34, 60495 is a payload satellite owned by Planet (US) in SSO that was launched on Fri, 16 Aug 2024 UTC via an FALCON 9 launch vehicle from the Air Force Western Test Range (AFWTR). Payload-class satellites include a variety of spacecraft equipped with specific instruments for various scientific and technological missions. These include communications satellites like Starlink; space stations such as the ISS; scientific satellites like the Hubble; Earth observation satellites from companies like Planet Labs, Umbra, and HawkEye 360; GPS; miniature CubeSats for education and research; and military/defense satellites.

Loading next visibility...
Identifier
60495, 2024-149AD
Orbit
SSO
Country
Flag of USUS
Related business
Manufacturer
Planet
Mission
Operational Commercial Imaging
Bus & Motor
CUBESAT 3U, Unknown motor
Mass
5.7 kg wet, 5.7 kg dry
Launch date (UTC)
2024-08-16 (2 years ago)
Launch vehicle
FALCON 9
Launch site
Air Force Western Test Range (AFWTR)
Object type
Payload
Rocket body
Debris
Shape & HBR
Box + 2 Pan, 1.0 m
Radar Cross Section
0.072 m², Medium (>0.1 m² and < 1m²)

Expand to show TLE details & history
Last TLE update: 19 hours ago

TLE from 19 hours ago
0 FLOCK 4BE 34
1 60495U 24149AD  26129.18226036  .00012564  00000-0  31626-3 0  9991
2 60495  97.3775 213.2082 0004741  77.3130 282.8646 15.40048807 96322
Epoch: 2026-05-09T04:22Z
TLE epoch observation values (Epoch: 2026-05-09T04:22:27.295Z)
Latitude
0.00002°
Longitude
-79.4089°
Altitude
448.364 km
Speed
7.644 km/s
True Right ascension
14h 12m 49s
True Declination
0° 00' 00"
Sunlit
Object was in full shadow at epoch
Visualization orbit readout
Latitude
Unknown
Longitude
Unknown
Altitude
Unknown
Speed
Unknown
Apparent Right ascension
Unknown
Apparent Declination
Unknown
Sunlit
N/A
Visualization observer readout
Local Sidereal Time
07:44:16
Azimuth
Unknown
Elevation
Unknown
Doppler factor
Unknown
Orbital elements
Apogee altitude
446.137 km
Perigee altitude
439.669 km
Semi-major axis
6,821.04 km
Eccentricity
0.00047
Inclination
97.3775°
RAAN
213.2082°
Arg. of periapsis
77.313°
True anomaly
282.81163°
Mean anomaly
282.8646°
Eccentric anomaly
282.83812°
Mean motion
3.85272 °/min
Orbital period
93.44 mins
BSTAR
0.00031626
Loading maneuver chart data...
Computing Atmospheric mass density...
Loading historical data...
Loading historical data...
Loading historical data...
Loading historical data...
Loading historical data...
Loading historical data...
Loading historical data...

Documentation

Showing up to 5 results
|